7 * 24
多渠道服务支持
STARLINK-35263是美国太空探索技术公司SpaceX星链(Starlink)星座的卫星,由美国在2025年9月13日发射升空,属于星链星座低轨卫星组网扩容的组成部分,旨在为全球提供高速低延迟的卫星互联网服务,弥补地面网络覆盖盲区,提升全球网络接入的普惠性。
美国
(US)
| 数据来源 | 国际轨道数据 |
| 星历时间: | 2026-09-15T06:00:03+0800 8小时前 查看轨道信息 |
| 半长轴: | 6912.664km |
| 偏心率: | 0.0001924 |
| 轨道倾角: | 97.284° |
| 近地点辐角 | 92.853° |
| 升交点赤经 | 320.592° |
| 平近点角 | 18.528° |
| 近地点: | 533.197km |
| 远地点: | 535.857km |
| 周期: | 95.330分钟 |
| 每日圈数: | 15.105484 |